Flag for Poland Weather past 2 weeks in Kielce, Poland

Now
43 °F

Fog.


Feels Like: 42 °F
Forecast: 34 / 54 °F
Wind: 3 mph from Northwest

Location: Kielce

Current Time: Mar 28, 2015 at 11:04:31 AM

Latest Report: Mar 28, 2015 at 10:00 AM


Visibility: 2 mi

Pressure: 30.04 "Hg

Humidity: 86%

Dew point: 39 °F

Location of KielceLocation

Historic Weather in Kielce — Graph

°F

Kielce temperature yesterday

Maximum temperature yesterday: 65 °F (at 11:00 AM)
Minimum temperature yesterday: 40 °F (at 3:00 AM)
Average temperature yesterday: 48 °F

Past Weeks' High & Low Weather Summary

 TemperatureHumidityPressure
High65 °F (Mar 27, 11:00 AM)98% (Mar 14, 4:00 AM)30.68 "Hg (Mar 14, 4:00 AM)
Low18 °F (Mar 23, 6:00 AM)28% (Mar 23, 4:00 PM)29.75 "Hg (Mar 27, 11:00 AM)
Average41 °F71%30.22 "Hg
* Reported Mar 13 9:00 AM — Mar 28 9:00 AM, Kielce, Weather by CustomWeather, © 2015

Note: Actual official high and low records may vary slightly from our data, if they occured in-between our weather recording intervals... More about our weather records

Advertising

Kielce weather history for previous 24 hours

 ConditionsComfort  
Time TempWeatherWind HumidityBarometerVisibility
9:00 AM
Sat, Mar 28
42 °FFog.6 mph88%30.04 "Hg2 mi
8:00 AM42 °FFog.5 mph90%30.04 "Hg2 mi
7:00 AM42 °FLow clouds.5 mph91%30.03 "Hg2 mi
6:00 AM41 °FDrizzle. Low clouds.5 mph92%30.03 "Hg2 mi
5:00 AM42 °FFog.5 mph91%30.02 "Hg2 mi
3:00 AM42 °FRain showers. Low clouds.5 mph93%30.01 "Hg2 mi
2:00 AM42 °FFog.5 mph91%30.00 "Hg2 mi
1:00 AM43 °FLow clouds.6 mph92%30.00 "Hg2 mi
12:00 AM43 °FSprinkles. Overcast.3 mph91%30.00 "Hg2 mi
11:00 PM
Fri, Mar 27
43 °FOvercast.5 mph90%29.99 "Hg2 mi
9:00 PM44 °FRain showers. Overcast.3 mph87%29.98 "Hg3 mi
8:00 PM44 °FOvercast.6 mph86%29.95 "Hg4 mi
7:00 PM44 °FOvercast.6 mph86%29.95 "Hg6 mi
6:00 PM45 °FSprinkles. Overcast.6 mph85%29.93 "Hg6 mi
5:00 PM46 °FSprinkles. Overcast.6 mph85%29.90 "Hg4 mi
4:00 PM47 °FSprinkles. Low clouds.7 mph85%29.86 "Hg6 mi
3:00 PM48 °FFog.6 mph87%29.85 "Hg2 mi
2:00 PM50 °FFog.8 mph85%29.84 "Hg2 mi
1:00 PM58 °FThunderstorms. Partly sunny.9 mph71%29.80 "Hg5 mi
12:00 PM62 °FOvercast.5 mph56%29.76 "Hg16 mi
11:00 AM65 °FPartly sunny.2 mph50%29.75 "Hg14 mi
Weather by CustomWeather, © 2015

See weather overviewHow to use our weather pages